Tiempo cada hora Aalen

Hoy, 24 Octubre, Sábado

Tiempo Temperatura Precipitaciones Viento Presión Humedad
00:00 +12°C° 0 mm 3 mps 720 mmHg 93%
01:00 +12°C° 0 mm 3 mps 720 mmHg 92%
02:00 +11°C° 0.1 mm 3 mps 720 mmHg 93%
03:00 +11°C° 0.1 mm 3 mps 720 mmHg 94%
04:00 +11°C° 0.1 mm 3 mps 721 mmHg 95%
05:00 +10°C° 0 mm 3 mps 721 mmHg 96%
06:00 +10°C° 0 mm 2 mps 721 mmHg 96%
07:00 +9°C° 0 mm 2 mps 721 mmHg 97%
08:00 +10°C° 0 mm 2 mps 721 mmHg 92%
09:00 +11°C° 0 mm 3 mps 722 mmHg 88%
10:00 +13°C° 0 mm 3 mps 722 mmHg 84%
11:00 +13°C° 0.1 mm 3 mps 722 mmHg 80%
12:00 +14°C° 0.1 mm 3 mps 722 mmHg 76%
13:00 +14°C° 0.1 mm 3 mps 722 mmHg 72%
14:00 +14°C° 0 mm 3 mps 722 mmHg 73%
15:00 +15°C° 0 mm 2 mps 721 mmHg 75%
16:00 +15°C° 0 mm 2 mps 721 mmHg 76%
17:00 +13°C° 0 mm 1 mps 721 mmHg 80%
18:00 +11°C° 0 mm 1 mps 721 mmHg 84%
19:00 +10°C° 0 mm 1 mps 721 mmHg 88%
20:00 +10°C° 0 mm 1 mps 721 mmHg 89%
21:00 +9°C° 0 mm 1 mps 720 mmHg 91%
22:00 +8°C° 0 mm 2 mps 720 mmHg 92%
23:00 +8°C° 0 mm 2 mps 720 mmHg 92%

Mañana, 25 Octubre, Domingo

Tiempo Temperatura Precipitaciones Viento Presión Humedad
00:00 +7°C° 0 mm 2 mps 719 mmHg 92%
01:00 +7°C° 0 mm 2 mps 719 mmHg 93%
02:00 +7°C° 0 mm 2 mps 719 mmHg 93%
03:00 +7°C° 0 mm 2 mps 718 mmHg 93%
04:00 +7°C° 0 mm 2 mps 718 mmHg 94%
05:00 +7°C° 0 mm 2 mps 718 mmHg 93%
06:00 +7°C° 0 mm 2 mps 717 mmHg 93%
07:00 +7°C° 0 mm 2 mps 717 mmHg 92%
08:00 +8°C° 0 mm 2 mps 717 mmHg 87%
09:00 +10°C° 0 mm 3 mps 717 mmHg 81%
10:00 +11°C° 0 mm 3 mps 717 mmHg 76%
11:00 +13°C° 0 mm 3 mps 716 mmHg 72%
12:00 +14°C° 0 mm 3 mps 716 mmHg 68%
13:00 +16°C° 0 mm 3 mps 716 mmHg 63%
14:00 +16°C° 0 mm 3 mps 715 mmHg 67%
15:00 +15°C° 0 mm 2 mps 714 mmHg 71%
16:00 +15°C° 0 mm 2 mps 714 mmHg 74%
17:00 +14°C° 0 mm 2 mps 714 mmHg 76%
18:00 +12°C° 0 mm 2 mps 714 mmHg 77%
19:00 +10°C° 0 mm 2 mps 714 mmHg 79%
20:00 +11°C° 0 mm 1 mps 714 mmHg 78%
21:00 +10°C° 0 mm 1 mps 714 mmHg 78%
22:00 +10°C° 0 mm 1 mps 714 mmHg 77%
23:00 +10°C° 0 mm 1 mps 714 mmHg 83%

Pasado mañana, 26 Octubre, Lunes

Tiempo Temperatura Precipitaciones Viento Presión Humedad
00:00 +8°C° 0 mm 2 mps 714 mmHg 89%
01:00 +8°C° 0 mm 2 mps 714 mmHg 94%
02:00 +8°C° 0.2 mm 2 mps 714 mmHg 95%
03:00 +8°C° 0.2 mm 2 mps 714 mmHg 95%
04:00 +8°C° 0.2 mm 2 mps 714 mmHg 96%
05:00 +8°C° 1.2 mm 2 mps 714 mmHg 96%
06:00 +8°C° 1.2 mm 2 mps 714 mmHg 96%
07:00 +8°C° 1.2 mm 2 mps 714 mmHg 96%
08:00 +8°C° 1 mm 2 mps 714 mmHg 96%
09:00 +9°C° 1 mm 1 mps 714 mmHg 95%
10:00 +9°C° 1 mm 1 mps 714 mmHg 94%
11:00 +9°C° 0.8 mm 1 mps 714 mmHg 94%
12:00 +9°C° 0.8 mm 1 mps 714 mmHg 94%
13:00 +8°C° 0.8 mm 2 mps 714 mmHg 94%
14:00 +9°C° 0.3 mm 1 mps 714 mmHg 94%
15:00 +9°C° 0.3 mm 1 mps 714 mmHg 94%
16:00 +8°C° 0.3 mm 1 mps 714 mmHg 95%
17:00 +8°C° 0.2 mm 1 mps 714 mmHg 95%
18:00 +8°C° 0.2 mm 1 mps 715 mmHg 95%
19:00 +8°C° 0.2 mm 1 mps 715 mmHg 95%
20:00 +8°C° 0.2 mm 1 mps 715 mmHg 95%
21:00 +8°C° 0.2 mm 1 mps 715 mmHg 95%
22:00 +6°C° 0.2 mm 2 mps 715 mmHg 95%
23:00 +6°C° 0 mm 2 mps 715 mmHg 94%

, 27 Octubre, Martes

Tiempo Temperatura Precipitaciones Viento Presión Humedad
00:00 +6°C° 0 mm 2 mps 716 mmHg 94%
01:00 +6°C° 0 mm 2 mps 716 mmHg 94%
02:00 +6°C° 0 mm 2 mps 716 mmHg 94%
03:00 +6°C° 0 mm 2 mps 715 mmHg 94%
04:00 +5°C° 0 mm 2 mps 715 mmHg 94%
05:00 +5°C° 0 mm 2 mps 716 mmHg 94%
06:00 +5°C° 0 mm 2 mps 716 mmHg 94%
07:00 +5°C° 0 mm 2 mps 716 mmHg 94%
08:00 +6°C° 0 mm 2 mps 716 mmHg 90%
09:00 +7°C° 0 mm 3 mps 716 mmHg 86%
10:00 +8°C° 0 mm 3 mps 717 mmHg 82%
11:00 +9°C° 0.1 mm 3 mps 717 mmHg 79%
12:00 +10°C° 0.1 mm 3 mps 717 mmHg 75%
13:00 +10°C° 0.1 mm 3 mps 717 mmHg 72%
14:00 +10°C° 0.1 mm 3 mps 717 mmHg 74%
15:00 +10°C° 0.1 mm 3 mps 717 mmHg 76%
16:00 +9°C° 0.1 mm 2 mps 717 mmHg 78%
17:00 +8°C° 0 mm 2 mps 717 mmHg 82%
18:00 +7°C° 0 mm 3 mps 717 mmHg 87%
19:00 +4°C° 0 mm 3 mps 717 mmHg 92%
20:00 +4°C° 0 mm 3 mps 717 mmHg 91%
21:00 +4°C° 0 mm 3 mps 717 mmHg 91%
22:00 +4°C° 0 mm 3 mps 717 mmHg 90%
23:00 +4°C° 0 mm 3 mps 717 mmHg 89%

27 Octubre, Martes

Tiempo Temperatura Precipitaciones Viento Presión Humedad
00:00 +6°C° 0 mm 2 mps 716 mmHg 94%
01:00 +6°C° 0 mm 2 mps 716 mmHg 94%
02:00 +6°C° 0 mm 2 mps 716 mmHg 94%
03:00 +6°C° 0 mm 2 mps 715 mmHg 94%
04:00 +5°C° 0 mm 2 mps 715 mmHg 94%
05:00 +5°C° 0 mm 2 mps 716 mmHg 94%
06:00 +5°C° 0 mm 2 mps 716 mmHg 94%
07:00 +5°C° 0 mm 2 mps 716 mmHg 94%
08:00 +6°C° 0 mm 2 mps 716 mmHg 90%
09:00 +7°C° 0 mm 3 mps 716 mmHg 86%
10:00 +8°C° 0 mm 3 mps 717 mmHg 82%
11:00 +9°C° 0.1 mm 3 mps 717 mmHg 79%
12:00 +10°C° 0.1 mm 3 mps 717 mmHg 75%
13:00 +10°C° 0.1 mm 3 mps 717 mmHg 72%
14:00 +10°C° 0.1 mm 3 mps 717 mmHg 74%
15:00 +10°C° 0.1 mm 3 mps 717 mmHg 76%
16:00 +9°C° 0.1 mm 2 mps 717 mmHg 78%
17:00 +8°C° 0 mm 2 mps 717 mmHg 82%
18:00 +7°C° 0 mm 3 mps 717 mmHg 87%
19:00 +4°C° 0 mm 3 mps 717 mmHg 92%
20:00 +4°C° 0 mm 3 mps 717 mmHg 91%
21:00 +4°C° 0 mm 3 mps 717 mmHg 91%
22:00 +4°C° 0 mm 3 mps 717 mmHg 90%
23:00 +4°C° 0 mm 3 mps 717 mmHg 89%

28 Octubre, Miércoles

Tiempo Temperatura Precipitaciones Viento Presión Humedad
00:00 +4°C° 0 mm 3 mps 717 mmHg 88%
01:00 +4°C° 0 mm 3 mps 717 mmHg 87%
02:00 +4°C° 0.1 mm 3 mps 717 mmHg 83%
03:00 +5°C° 0.1 mm 3 mps 717 mmHg 80%
04:00 +5°C° 0.1 mm 3 mps 717 mmHg 77%
05:00 +5°C° 0.2 mm 3 mps 717 mmHg 78%
06:00 +5°C° 0.2 mm 4 mps 717 mmHg 80%
07:00 +6°C° 0.2 mm 4 mps 717 mmHg 81%
08:00 +7°C° 0 mm 4 mps 717 mmHg 80%
09:00 +8°C° 0 mm 4 mps 717 mmHg 78%
10:00 +10°C° 0 mm 4 mps 718 mmHg 77%
11:00 +10°C° 0 mm 5 mps 718 mmHg 75%
12:00 +10°C° 0 mm 5 mps 718 mmHg 73%
13:00 +12°C° 0 mm 5 mps 718 mmHg 70%
14:00 +12°C° 0 mm 4 mps 718 mmHg 72%
15:00 +12°C° 0 mm 4 mps 718 mmHg 74%
16:00 +12°C° 0 mm 3 mps 718 mmHg 76%
17:00 +11°C° 0 mm 3 mps 718 mmHg 78%
18:00 +10°C° 0 mm 3 mps 718 mmHg 81%
19:00 +9°C° 0 mm 3 mps 718 mmHg 83%
20:00 +8°C° 0 mm 4 mps 719 mmHg 84%
21:00 +8°C° 0 mm 4 mps 719 mmHg 85%
22:00 +8°C° 0 mm 4 mps 719 mmHg 87%
23:00 +8°C° 0.1 mm 4 mps 719 mmHg 87%

29 Octubre, Jueves

Tiempo Temperatura Precipitaciones Viento Presión Humedad
00:00 +8°C° 0.1 mm 4 mps 719 mmHg 87%
01:00 +8°C° 0.1 mm 5 mps 719 mmHg 87%
02:00 +8°C° 0.3 mm 4 mps 719 mmHg 89%
03:00 +8°C° 0.3 mm 4 mps 719 mmHg 90%
04:00 +8°C° 0.3 mm 4 mps 719 mmHg 91%
05:00 +8°C° 0.1 mm 4 mps 720 mmHg 91%
06:00 +7°C° 0.1 mm 4 mps 720 mmHg 91%
07:00 +7°C° 0.1 mm 4 mps 720 mmHg 90%
08:00 +8°C° 0 mm 4 mps 721 mmHg 87%
09:00 +9°C° 0 mm 5 mps 721 mmHg 84%
10:00 +9°C° 0 mm 5 mps 722 mmHg 81%
11:00 +10°C° 0.1 mm 6 mps 722 mmHg 78%
12:00 +11°C° 0.1 mm 6 mps 722 mmHg 75%
13:00 +11°C° 0.1 mm 7 mps 722 mmHg 72%
14:00 +12°C° 0 mm 5 mps 722 mmHg 74%
15:00 +11°C° 0 mm 4 mps 722 mmHg 76%
16:00 +11°C° 0 mm 3 mps 722 mmHg 77%
17:00 +10°C° 0 mm 3 mps 723 mmHg 80%
18:00 +9°C° 0 mm 3 mps 723 mmHg 83%
19:00 +9°C° 0 mm 3 mps 724 mmHg 86%
20:00 +9°C° 0 mm 3 mps 724 mmHg 85%
21:00 +8°C° 0 mm 4 mps 724 mmHg 84%
22:00 +8°C° 0 mm 4 mps 724 mmHg 84%
23:00 +8°C° 0 mm 4 mps 724 mmHg 83%
Mostrar más

Necesitamos Su Consentimiento

Meteoprog y nuestros Proveedores de Servicios pueden almacenar y acceder a sus datos personales como cookies, identificadores de dispositivo u otras tecnologías similares de su dispositivo y procesar dichos datos para personalizar contenido y anuncios, además de ofrecer funciones de redes sociales y analizar el tráfico.

  • Almacenar y/o acceder a información en su dispositivo

    Se puede almacenar o acceder a cookies, identificadores de dispositivo u otra información de su dispositivo para los fines anteriormente indicados.

  • Anuncios y contenido personalizados, medición de anuncios y contenido, percepciones del público, y desarrollo de productos

    Los anuncios y el contenido pueden personalizarse en base a su perfil. Se pueden añadir más datos para personalizar mejor los anuncios y contenidos. Se puede medir el rendimiento de los anuncios y contenidos. Se puede obtener la percepción sobre el público que ha visto los anuncios y contenidos. Dichos datos pueden usarse para desarrollar o mejorar la experiencia del usuario, sistemas y software.

Al hacer clic en ‘Estoy De Acuerdo’ usted permitirá el uso de las cookies, identificadores de dispositivo, balizas web u otras tecnologías similares indicadas. Su configuración puede cambiarse desde el navegador de su dispositivo.

Para ciertos fines, los intereses legítimos pueden ser considerados por encima del consentimiento. Puede leer más sobre ello en nuestra Política de Privacidad y Cookies.